BEIDOU G7

Last updated on Mon Apr 01 2019 03:15:19 GMT+0000 (Coordinated Universal Time)

1 41586U 16037A 19090.89400469 -.00000368 00000-0 00000+0 0 9997 2 41586 0.8038 31.5494 0009179 10.0617 219.6484 1.00277573 10368

Satellite not in orbit

BEIDOU G7